Inquirer Daily News

Weather

Get conditions and forecasts for any City, State, ZIP code or Country:  
Northeast Philadelphia, PA
on Tuesday, February 19, 2013

Tuesday
Previous Day Next Day
Daily Summary
 ActualAverage (KTTN)Record (KTTN)
Temperature
Mean Temperature °F 35°F  
Max Temperature 46°F 43°F 68°F (1948)
Min Temperature 25°F 26°F 2°F (1903)
Degree Days
Heating Degree Days 30 30  
Month to date heating degree days 605  
Since 1 July heating degree days 3551  
Cooling Degree Days 0 0  
Month to date cooling degree days 0  
Year to date cooling degree days 0  
Moisture
Dew Point 30°F   
Average Humidity 71    
Maximum Humidity 93    
Minimum Humidity 45    
Precipitation
Precipitation 0.18 in 0.09 in 1.60 in (1898)
Month to date precipitation 1.49  
Year to date precipitation 4.65  
Wind
Wind Speed 5 mph   
Max Wind Speed 20 mph   
Max Gust Speed 25 mph   
Visibility 8 miles   
Events Rain   

Key: T is trace of precipitation, MM is missing value
Source: NWS Daily Summary
Time(EST)TemperatureDew PointHumidity Pressure Visibility Wind DirectionWind SpeedGust SpeedPrecipitationEvents Conditions
12:54 AM 30.0°F 12.9°F 49% 30.21 in 10.0 miles Calm Calm - N/A   Clear
1:54 AM 30.0°F 14.0°F 51% 30.18 in 10.0 miles Calm Calm - N/A   Clear
2:54 AM 28.0°F 15.1°F 58% 30.15 in 10.0 miles Calm Calm - N/A   Clear
3:54 AM 25.0°F 16.0°F 69% 30.14 in 10.0 miles Calm Calm - N/A   Clear
4:54 AM 26.1°F 17.1°F 69% 30.11 in 10.0 miles SE 4.6 mph - N/A   Clear
5:54 AM 25.0°F 18.0°F 75% 30.09 in 10.0 miles ESE 3.5 mph - N/A   Clear
6:54 AM 26.1°F 19.0°F 75% 30.07 in 10.0 miles East 3.5 mph - N/A   Clear
7:54 AM 28.9°F 23.0°F 78% 30.06 in 10.0 miles ESE 3.5 mph - N/A   Clear
8:54 AM 36.0°F 25.0°F 64% 30.03 in 10.0 miles SE 3.5 mph - N/A   Clear
9:54 AM 44.1°F 24.1°F 45% 30.00 in 10.0 miles SSW 15.0 mph 25.3 mph N/A   Clear
10:54 AM 46.0°F 28.0°F 50% 29.98 in 10.0 miles SW 16.1 mph 23.0 mph N/A   Scattered Clouds
11:54 AM 43.0°F 33.1°F 68% 29.96 in 8.0 miles SSW 8.1 mph 21.9 mph 0.01 in Rain Light Rain
1:54 PM 43.0°F 39.0°F 86% 29.86 in 8.0 miles South 5.8 mph - 0.04 in Rain Light Rain
2:05 PM 42.8°F 39.2°F 87% 29.85 in 6.0 miles Variable 6.9 mph - 0.00 in Rain Light Rain
2:28 PM 42.8°F 39.2°F 87% 29.82 in 5.0 miles South 6.9 mph - 0.02 in Rain Light Rain
2:46 PM 42.8°F 41.0°F 93% 29.81 in 4.0 miles South 6.9 mph - 0.03 in Rain Light Rain
2:54 PM 43.0°F 41.0°F 93% 29.80 in 4.0 miles South 6.9 mph - 0.04 in Rain Light Rain
3:09 PM 44.6°F 42.8°F 93% 29.79 in 7.0 miles South 5.8 mph - 0.01 in Rain Light Rain
3:54 PM 45.0°F 42.1°F 90% 29.77 in 10.0 miles SSW 11.5 mph 18.4 mph 0.02 in Rain Light Rain
4:54 PM 45.0°F 42.1°F 90% 29.76 in 5.0 miles SSW 10.4 mph - 0.03 in Rain Light Rain
5:08 PM 44.6°F 41.0°F 87% 29.75 in 4.0 miles SSW 10.4 mph - 0.02 in Rain Light Rain
5:30 PM 44.6°F 35.6°F 71% 29.74 in 5.0 miles SSW 8.1 mph - 0.04 in Rain Light Rain
5:54 PM 45.0°F 32.0°F 60% 29.73 in 10.0 miles SSW 8.1 mph - 0.04 in Rain Light Rain
7:41 PM 44.6°F 30.2°F 57% 29.73 in 10.0 miles West 19.6 mph 24.2 mph N/A   Overcast
7:54 PM 44.1°F 30.9°F 60% 29.74 in 10.0 miles West 13.8 mph - N/A   Overcast
8:22 PM 44.6°F 30.2°F 57% 29.74 in 10.0 miles West 10.4 mph 19.6 mph N/A   Mostly Cloudy
8:54 PM 43.0°F 30.9°F 62% 29.75 in 10.0 miles West 11.5 mph 19.6 mph N/A   Overcast
9:54 PM 41.0°F 30.0°F 65% 29.78 in 10.0 miles West 16.1 mph 23.0 mph N/A   Clear
10:54 PM 37.9°F 27.0°F 65% 29.80 in 10.0 miles West 9.2 mph - N/A   Clear
11:54 PM 36.0°F 26.1°F 67% 29.81 in 10.0 miles WNW 6.9 mph - N/A   Clear
Astronomy
Sunrise:06:47 AM (EST) Moon Rise:12:10 PM (EST)
Sunset:05:40 PM (EST) Moon Set:02:17 AM (EST)
Moon Phase
Feb. 19 Feb. 25 Mar. 04 Mar. 11 Mar. 19

Copyright © 2014 The Weather Underground, Inc.